Volver al catálogo

OPS 4682 DEB

ActivoPO
NORAD 51506·DEBRIS·🇺🇸 United States

Lanzado Apr 3, 1965 desde Vandenberg Space Force Base

Loading…

Próximos Pases (próximas 24 horas)

TLE

ActualizadoSource: Space-Track

Época: Sep 12, 2026, 13:42 UTC

1 51506U 65027GS  26255.57110964  .00000411  00000-0  13884-2 0  9992
2 51506  90.2513  15.2244 0040076 211.8301 162.6152 12.97342520708384

Sigue OPS 4682 DEB en tiempo real con AllMySat

Download on the App Store